Regional Weather Roundup
Issued by NWS

Home | Current Version | Previous Version | Text Only | Print | Product List | Glossary Off
Versions: 1 2 3 4 5 6 7 8 9 10 11 12 13 14 15 16 17 18 19 20 21 22 23 24 25 26 27 28 29 30 31 32 33 34 35 36 37 38 39 40 41 42 43 44 45 46 47 48 49 50

000
ASUS45 KTFX 012004
RWRMT
MONTANA HOURLY WEATHER ROUNDUP
NATIONAL WEATHER SERVICE GREAT FALLS MT
104 PM MST SUN MAR 1 2015

NOTE: "FAIR" INDICATES FEW OR NO CLOUDS BELOW 12000 FEET WITH NO
SIGNIFICANT WEATHER AND/OR OBSTRUCTIONS TO VISIBILITY.

* THESE STATIONS ARE NOT UNDER NWS QUALITY CONTROL. THEY DO NOT
   REPORT WEATHER SUCH AS PRECIPITATION OR FOG.

MTZ001>007-043-012100-
WEST OF THE DIVIDE
CITY           SKY/WX    TMP DP  RH WIND       PRES   REMARKS
KALISPELL      PTSUNNY   30   9  41 VRB3      30.19F
MISSOULA       PTCLDY    32   7  35 CALM      30.21F
BUTTE          SUNNY     27   3  35 CALM      30.11F
MULLAN PASS    PTSUNNY   25   5  42 VRB3      30.05F
* ANACONDA     SUNNY     28   5  37 SE11       N/A   WCI  18
* ESSEX        N/A       30   3  31 W2G9       N/A
* EUREKA APT   PTSUNNY   34  12  40 SW3       30.17F
* HAMILTON APT SUNNY     36   7  30 E5        30.16F WCI  32
* LIBBY APT    CLOUDY    30   7  38 CALM      30.19F
* LINCOLN      N/A       30   6  36 S3         N/A
* LOOKOUT PASS N/A       29   7  39 S8         N/A   WCI  21
* POLSON       N/A       31  11  43 SE3        N/A
* RONAN APT    PTCLDY    34  14  44 NW5        N/A   WCI  29
* SEELEY LAKE  N/A       33   6  32 NW2        N/A
* THOMP F APT  PTSUNNY   28   4  36 W6G16      N/A   WCI  21
* YAAK HILL    N/A       30  12  47 S3         N/A
$$

MTZ008-052>055-012100-
SOUTHWEST MONTANA
CITY           SKY/WX    TMP DP  RH WIND       PRES   REMARKS
BOZEMAN        SUNNY     27   3  35 CALM      30.20F
DILLON         SUNNY     27   3  35 CALM      30.14F
* W YELLOWSTON SUNNY     22  -4  31 N3         N/A
* THREE FORKS  SUNNY     28   7  41 N/A        N/A
* BOULDER HILL N/A       21   2  43 S15        N/A   WCI   7
* MONIDA PASS  N/A       23  -1  35 NE6        N/A   WCI  16
* RAYNOLDS PAS N/A       25   8  48 SE2        N/A
* WHITEHALL    N/A       31   6  34 SE3G11     N/A
* WISE RIVER   N/A       25  -1  32 E2G7       N/A
$$

MTZ009>010-012-014-046-048-049-054-012100-
EAST SLOPES AND CENTRAL MONTANA
CITY           SKY/WX    TMP DP  RH WIND       PRES   REMARKS
CUT BANK       PTCLDY    34  10  37 S9        30.07F WCI  27
GREAT FALLS    SUNNY     34  12  40 S16       30.14F WCI  24
HELENA         SUNNY     28   7  41 E7        30.19F WCI  21
* DEARBORN     N/A       30   6  36 SW9G15     N/A   WCI  22
* EAST GLACIER N/A       28   7  41 W20G27     N/A   WCI  15
* MONARCH      N/A       27   0  31 S7G12      N/A   WCI  19
* PENDROY      N/A       29  11  47 S9         N/A   WCI  21
* ROGERS PASS  N/A       25   3  38 SE8G17     N/A   WCI  16
* SWEET GRASS  N/A       31  18  59 S14G22     N/A   WCI  21
$$

MTZ011-013-016-021-035-040-045-047-050-051-012100-
NORTH CENTRAL MONTANA
CITY           SKY/WX    TMP DP  RH WIND       PRES   REMARKS
HAVRE          SUNNY     34  12  40 SW14G22   30.21F WCI  24
LEWISTOWN      SUNNY     25   5  42 SW6       30.18F WCI  18
* N BAR RANCH  SUNNY     25   3  38 VRB6      30.18F WCI  18
* CHINOOK      SUNNY     30  10  43 SW6       30.24F WCI  24
* FORT BENTON  SUNNY     32  16  52 E8        30.21F WCI  25
* CHESTER      N/A       31  15  51 S6G15      N/A   WCI  25
* DENTON       N/A       31   6  34 S6         N/A   WCI  25
* GEYSER       N/A       28   5  37 E6         N/A   WCI  21
* JUDITH GAP   N/A       25   6  44 SE6        N/A   WCI  18
* LOMA         N/A       31  15  51 SE7        N/A   WCI  24
$$

MTZ017>020-022>027-061-062-012100-
NORTHEAST MONTANA
CITY           SKY/WX    TMP DP  RH WIND       PRES   REMARKS
GLASGOW        CLOUDY    27  10  49 NW5       30.29F WCI  21
GLENDIVE       SUNNY     23  12  63 NW13      30.30F WCI  11
JORDAN         SUNNY     28   9  45 NW9       30.29F WCI  19
SIDNEY         PTSUNNY   27  10  49 W10G20    30.34S WCI  18
WOLF POINT     CLOUDY    28  10  47 W13       30.31F WCI  17
* BEAVER HILL  N/A       20  12  71 W15        N/A   WCI   6
* CIRCLE       N/A       24  17  75 W9         N/A   WCI  14
* LINDSAY DVD  N/A       20  13  74 NW12G20    N/A   WCI   8
* NAVAJO       N/A       21  11  65 NW12       N/A   WCI   9
* PLENTYWOOD A SUNNY     19  12  74 NW10      30.27F WCI   8
* POPLAR APT   SUNNY     27   9  46 W9G21     30.31F WCI  18
* SACO         N/A       27   9  46 S8         N/A   WCI  19
$$

MTZ028>042-056>058-012100-
SOUTHCENTRAL AND SOUTHEAST MONTANA
CITY           SKY/WX    TMP DP  RH WIND       PRES   REMARKS
BAKER          LGT SNOW  21  10  62 NW16      30.28R WCI   7
BILLINGS       SUNNY     32   1  26 SW6       30.24F WCI  26
LIVINGSTON     SUNNY     30   5  34 W12       30.16F WCI  20
MILES CITY     CLOUDY    27  12  53 N15       30.31F WCI  15
* BIG TIMBER A SUNNY     28   3  34 SW10G18   30.19F WCI  19
* LAUREL APT   SUNNY     30   3  31 N/A        N/A
* ROUNDUP APT  SUNNY     30  -2  25 N/A        N/A
* ALZADA       N/A       22  12  65 W12        N/A   WCI  10
* HYSHAM       N/A       25   5  42 W7G14      N/A   WCI  17
* LAME DEER    N/A       20   8  59 NW6G11     N/A   WCI  12
* REED POINT   N/A       30   6  36 E9G16      N/A   WCI  22
* ROSCOE HILL  N/A       20   1  43 E11        N/A   WCI   8
$$

REGIONAL REPORTS...DAKOTAS
CITY           SKY/WX    TMP DP  RH WIND       PRES   REMARKS
WILLISTON      SUNNY     25  12  58 NW15      30.30F WCI  13
DICKINSON      CLOUDY    25   9  50 NW16      30.23F WCI  12
BEACH          LGT SNOW  21  14  74 W15       30.28S WCI   7
CROSBY         SUNNY     19  14  81 NW12      30.28F WCI   6
WATFORD CITY   SUNNY     23  10  57 NW9       30.28S WCI  13
BISMARCK       LGT SNOW  25  14  63 NW20      30.29S WCI  11
GRAND FORKS    PTSUNNY   19  10  68 NW14      30.22S WCI   5
FARGO          CLOUDY    21  12  68 NW15      30.22S WCI   7
BUFFALO SD     SUNNY     25  10  53 W23G31    30.21S WCI  10
RAPID CITY     SUNNY     28  12  51 N24       30.26F WCI  14
$$

REGIONAL REPORTS...WYOMING/IDAHO/WASHINGTON
CITY           SKY/WX    TMP DP  RH WIND       PRES   REMARKS
GILLETTE       SUNNY     25   9  50 NW13      30.24F WCI  13
SHERIDAN       SUNNY     25   7  46 W7        30.26F WCI  17
CODY           SUNNY     25  10  53 SE14      30.18F WCI  13
YELLOWSTONE LA SUNNY     10  -6  48 E3        30.09F
SALMON         SUNNY     30   9  41 NW5       30.17F WCI  25
MULLAN PASS    PTSUNNY   25   5  42 VRB3      30.05S
SAND POINT     CLOUDY    34  12  40 CALM      30.20F
SPOKANE        PTSUNNY   39  12  33 E6        30.17F WCI  35

$$



USA.gov is the U.S. government's official web portal to all federal, state and local government web resources and services.